Torna al catalogo

COSMOS 1275 DEB

AttivoPO
NORAD 42118·DEBRIS·🇷🇺 Russia

Lanciato Jun 4, 1981 da Plesetsk Cosmodrome

Loading…

Prossimi Passaggi (prossime 24 ore)

TLE

AggiornatoSource: Space-Track

Epoca: Sep 13, 2026, 23:20 UTC

1 42118U 81053QE  26256.97250828  .00008004  00000-0  17255-2 0  9999
2 42118  82.9441  95.2950 0031408 191.8545 168.1922 14.58015904663691

Traccia COSMOS 1275 DEB in tempo reale con AllMySat

Download on the App Store